When you browse on this site, cookies collect data to enhance your experience and personalize the content and advertising you see.
Visit our Privacy Policy to learn more. By continuing to use the site, you agree to this use of cookies and data.
  • In Österreich
  • Länderverzeichnis
  • Für 7 Tage
  • Wassertemperatur
  • Wetterkarte
  • News
  • Widgets
  • user-avatar
    Anmelden

    Stündliche Wetter Karaganka

    Heute, 2 Juni, Dienstag

    Zeit Temperatur Niederschläge Wind Luftdruck Luftfeuchtigkeit
    00:00 +17°C° 0 mm 3 m/S 737 mmHg 71%
    01:00 +17°C° 0 mm 3 m/S 738 mmHg 72%
    02:00 +16°C° 0 mm 2 m/S 737 mmHg 74%
    03:00 +15°C° 0 mm 2 m/S 737 mmHg 76%
    04:00 +15°C° 0 mm 2 m/S 737 mmHg 77%
    05:00 +17°C° 0 mm 2 m/S 738 mmHg 71%
    06:00 +18°C° 0 mm 2 m/S 738 mmHg 65%
    07:00 +20°C° 0 mm 2 m/S 738 mmHg 59%
    08:00 +21°C° 0 mm 2 m/S 738 mmHg 53%
    09:00 +23°C° 0 mm 2 m/S 738 mmHg 47%
    10:00 +25°C° 0 mm 2 m/S 738 mmHg 40%
    11:00 +26°C° 0 mm 2 m/S 738 mmHg 37%
    12:00 +26°C° 0 mm 2 m/S 738 mmHg 33%
    13:00 +27°C° 0 mm 1 m/S 738 mmHg 30%
    14:00 +28°C° 0 mm 1 m/S 738 mmHg 29%
    15:00 +28°C° 0 mm 1 m/S 737 mmHg 27%
    16:00 +29°C° 0 mm 1 m/S 737 mmHg 26%
    17:00 +28°C° 0 mm 1 m/S 737 mmHg 30%
    18:00 +27°C° 0 mm 1 m/S 737 mmHg 34%
    19:00 +26°C° 0 mm 1 m/S 737 mmHg 38%
    20:00 +25°C° 0 mm 2 m/S 737 mmHg 40%
    21:00 +23°C° 0 mm 2 m/S 737 mmHg 42%
    22:00 +20°C° 0 mm 3 m/S 737 mmHg 44%
    23:00 +20°C° 0 mm 4 m/S 737 mmHg 50%

    Morgen, 3 Juni, Mittwoch

    Zeit Temperatur Niederschläge Wind Luftdruck Luftfeuchtigkeit
    00:00 +19°C° 0 mm 4 m/S 737 mmHg 56%
    01:00 +17°C° 0 mm 5 m/S 737 mmHg 62%
    02:00 +17°C° 0 mm 5 m/S 737 mmHg 67%
    03:00 +17°C° 0 mm 4 m/S 738 mmHg 72%
    04:00 +15°C° 0 mm 4 m/S 738 mmHg 77%
    05:00 +17°C° 0 mm 4 m/S 738 mmHg 74%
    06:00 +17°C° 0 mm 5 m/S 738 mmHg 71%
    07:00 +19°C° 0 mm 5 m/S 738 mmHg 68%
    08:00 +21°C° 0 mm 5 m/S 738 mmHg 61%
    09:00 +22°C° 0 mm 5 m/S 738 mmHg 55%
    10:00 +25°C° 0 mm 4 m/S 738 mmHg 49%
    11:00 +26°C° 0 mm 4 m/S 738 mmHg 45%
    12:00 +27°C° 0 mm 3 m/S 737 mmHg 42%
    13:00 +27°C° 0 mm 3 m/S 737 mmHg 38%
    14:00 +27°C° 0 mm 3 m/S 737 mmHg 38%
    15:00 +28°C° 0 mm 3 m/S 737 mmHg 37%
    16:00 +28°C° 0 mm 3 m/S 737 mmHg 36%
    17:00 +27°C° 0 mm 4 m/S 737 mmHg 41%
    18:00 +25°C° 0 mm 5 m/S 737 mmHg 46%
    19:00 +23°C° 0 mm 5 m/S 737 mmHg 51%
    20:00 +22°C° 0 mm 6 m/S 737 mmHg 53%
    21:00 +20°C° 0 mm 6 m/S 738 mmHg 56%
    22:00 +19°C° 0 mm 6 m/S 738 mmHg 59%
    23:00 +17°C° 0 mm 6 m/S 738 mmHg 61%

    übermorgen, 4 Juni, Donnerstag

    Zeit Temperatur Niederschläge Wind Luftdruck Luftfeuchtigkeit
    00:00 +16°C° 0 mm 6 m/S 738 mmHg 63%
    01:00 +15°C° 0 mm 6 m/S 738 mmHg 65%
    02:00 +15°C° 0 mm 6 m/S 738 mmHg 66%
    03:00 +14°C° 0 mm 6 m/S 738 mmHg 67%
    04:00 +14°C° 0 mm 6 m/S 738 mmHg 69%
    05:00 +15°C° 0 mm 7 m/S 738 mmHg 66%
    06:00 +15°C° 0 mm 7 m/S 738 mmHg 62%
    07:00 +16°C° 0 mm 7 m/S 738 mmHg 59%
    08:00 +18°C° 0 mm 7 m/S 739 mmHg 55%
    09:00 +20°C° 0 mm 7 m/S 739 mmHg 50%
    10:00 +21°C° 0 mm 7 m/S 739 mmHg 45%
    11:00 +22°C° 0 mm 7 m/S 739 mmHg 43%
    12:00 +22°C° 0 mm 7 m/S 739 mmHg 41%
    13:00 +23°C° 0 mm 7 m/S 739 mmHg 39%
    14:00 +23°C° 0 mm 7 m/S 739 mmHg 38%
    15:00 +23°C° 0 mm 8 m/S 739 mmHg 38%
    16:00 +23°C° 0 mm 8 m/S 739 mmHg 37%
    17:00 +22°C° 0 mm 7 m/S 739 mmHg 39%
    18:00 +21°C° 0 mm 6 m/S 739 mmHg 42%
    19:00 +20°C° 0 mm 6 m/S 739 mmHg 45%
    20:00 +19°C° 0 mm 6 m/S 739 mmHg 45%
    21:00 +19°C° 0 mm 6 m/S 739 mmHg 45%
    22:00 +17°C° 0 mm 6 m/S 740 mmHg 46%
    23:00 +16°C° 0 mm 7 m/S 740 mmHg 48%

    5 Juni, Freitag

    Zeit Temperatur Niederschläge Wind Luftdruck Luftfeuchtigkeit
    00:00 +16°C° 0 mm 7 m/S 739 mmHg 50%
    01:00 +15°C° 0 mm 7 m/S 739 mmHg 52%
    02:00 +15°C° 0 mm 7 m/S 740 mmHg 52%
    03:00 +15°C° 0 mm 7 m/S 740 mmHg 53%
    04:00 +14°C° 0 mm 6 m/S 741 mmHg 53%
    05:00 +14°C° 0 mm 7 m/S 741 mmHg 53%
    06:00 +14°C° 0 mm 7 m/S 741 mmHg 53%
    07:00 +14°C° 0 mm 7 m/S 741 mmHg 52%
    08:00 +14°C° 0 mm 7 m/S 741 mmHg 52%
    09:00 +14°C° 0 mm 7 m/S 741 mmHg 51%
    10:00 +15°C° 0 mm 7 m/S 742 mmHg 51%
    11:00 +15°C° 0 mm 7 m/S 742 mmHg 48%
    12:00 +16°C° 0 mm 7 m/S 742 mmHg 45%
    13:00 +17°C° 0 mm 7 m/S 742 mmHg 42%
    14:00 +16°C° 0.3 mm 6 m/S 742 mmHg 47%
    15:00 +15°C° 0.3 mm 6 m/S 742 mmHg 52%
    16:00 +14°C° 0.3 mm 6 m/S 742 mmHg 57%
    17:00 +13°C° 0 mm 5 m/S 742 mmHg 57%
    18:00 +13°C° 0 mm 5 m/S 742 mmHg 58%
    19:00 +13°C° 0 mm 4 m/S 742 mmHg 58%
    20:00 +13°C° 0 mm 4 m/S 742 mmHg 56%
    21:00 +13°C° 0 mm 4 m/S 742 mmHg 54%
    22:00 +14°C° 0 mm 3 m/S 742 mmHg 52%
    23:00 +14°C° 0 mm 4 m/S 742 mmHg 51%

    6 Juni, Samstag

    Zeit Temperatur Niederschläge Wind Luftdruck Luftfeuchtigkeit
    00:00 +14°C° 0 mm 4 m/S 742 mmHg 51%
    01:00 +14°C° 0 mm 4 m/S 742 mmHg 50%
    02:00 +14°C° 0 mm 5 m/S 742 mmHg 47%
    03:00 +14°C° 0 mm 5 m/S 741 mmHg 45%
    04:00 +14°C° 0 mm 6 m/S 741 mmHg 42%
    05:00 +15°C° 0 mm 7 m/S 741 mmHg 43%
    06:00 +15°C° 0 mm 7 m/S 741 mmHg 44%
    07:00 +15°C° 0 mm 8 m/S 741 mmHg 45%
    08:00 +15°C° 0 mm 7 m/S 741 mmHg 45%
    09:00 +16°C° 0 mm 7 m/S 741 mmHg 44%
    10:00 +17°C° 0 mm 6 m/S 741 mmHg 44%
    11:00 +19°C° 0 mm 6 m/S 741 mmHg 42%
    12:00 +20°C° 0 mm 6 m/S 741 mmHg 39%
    13:00 +21°C° 0 mm 6 m/S 741 mmHg 37%
    14:00 +20°C° 0 mm 6 m/S 741 mmHg 38%
    15:00 +19°C° 0 mm 6 m/S 741 mmHg 40%
    16:00 +19°C° 0 mm 5 m/S 741 mmHg 42%
    17:00 +17°C° 0 mm 5 m/S 741 mmHg 43%
    18:00 +17°C° 0 mm 5 m/S 741 mmHg 44%
    19:00 +18°C° 0 mm 4 m/S 741 mmHg 45%
    20:00 +17°C° 0 mm 4 m/S 741 mmHg 46%
    21:00 +17°C° 0 mm 4 m/S 741 mmHg 46%
    22:00 +16°C° 0 mm 3 m/S 741 mmHg 46%
    23:00 +15°C° 0 mm 4 m/S 741 mmHg 47%

    7 Juni, Sonntag

    Zeit Temperatur Niederschläge Wind Luftdruck Luftfeuchtigkeit
    00:00 +14°C° 0 mm 4 m/S 741 mmHg 48%
    01:00 +14°C° 0 mm 5 m/S 741 mmHg 49%
    02:00 +14°C° 0 mm 5 m/S 741 mmHg 50%
    03:00 +13°C° 0 mm 5 m/S 741 mmHg 52%
    04:00 +13°C° 0 mm 5 m/S 741 mmHg 53%
    05:00 +14°C° 0 mm 6 m/S 741 mmHg 52%
    06:00 +16°C° 0 mm 6 m/S 742 mmHg 51%
    07:00 +17°C° 0 mm 7 m/S 742 mmHg 50%
    08:00 +18°C° 0 mm 7 m/S 742 mmHg 46%
    09:00 +20°C° 0 mm 8 m/S 742 mmHg 43%
    10:00 +22°C° 0 mm 8 m/S 743 mmHg 39%
    11:00 +21°C° 0 mm 8 m/S 743 mmHg 42%
    12:00 +20°C° 0 mm 8 m/S 743 mmHg 44%
    13:00 +18°C° 0 mm 8 m/S 743 mmHg 47%
    14:00 +19°C° 0 mm 6 m/S 743 mmHg 48%
    15:00 +19°C° 0 mm 4 m/S 742 mmHg 48%
    16:00 +21°C° 0 mm 1 m/S 742 mmHg 48%
    17:00 +20°C° 0 mm 2 m/S 742 mmHg 48%
    18:00 +19°C° 0 mm 3 m/S 742 mmHg 49%
    19:00 +19°C° 0 mm 3 m/S 742 mmHg 49%
    20:00 +19°C° 0 mm 3 m/S 742 mmHg 50%
    21:00 +18°C° 0 mm 3 m/S 742 mmHg 52%
    22:00 +17°C° 0 mm 3 m/S 742 mmHg 53%
    23:00 +17°C° 0 mm 4 m/S 742 mmHg 54%
    Mehr zeigen